User: anonymous   Login
Location: UBC Liquid-Mirror Observatory
(49.2876°N, 122.5728°W)
Time: 14:21:26
(UTC-07:00)
Language:

KITSAT 1 - Orbit

View from above orbital plane
View from above orbital plane
View from above satellite
View from above satellite

Ground track
Ground track

The orbit data is extracted from the following two-line orbital elements,

1 22077U 92052B   17141.94402135 -.00000054 +00000-0 +29710-4 0  9991
2 22077 066.0864 021.5263 0007936 331.4070 116.0881 12.86518017163646
Epoch (UTC): 21 May 2017 22:39:23
Eccentricity: 0.0007936
inclination: 66.0864°
perigee height: 1309 km
apogee height: 1321 km
right ascension of ascending node: 21.5263°
argument of perigee: 331.4070°
revolutions per day: 12.86518017
mean anomaly at epoch: 116.0881°
orbit number at epoch: 16364

The dashed part of the orbit path shows where the satellite is in the earth's shadow,  

DLR